Regional Weather Roundup
Issued by NWS

Home | Current Version | Previous Version | Graphics & Text | Print | Product List | Glossary On
Versions: 1 2 3 4 5 6 7 8 9 10 11 12 13 14 15 16 17 18 19 20 21 22 23 24 25 26 27 28 29 30 31 32 33 34 35 36 37 38 39 40 41 42 43 44 45 46 47 48 49 50
000
ASUS43 KOAX 251802
RWRNE

WEATHER ROUNDUP FOR NEBRASKA
NATIONAL WEATHER SERVICE OMAHA NE
100 PM CDT WED MAY 25 2016

NOTES: SATELLITE DATA IS BEING USED TO AUGMENT CLOUD COVER ABOVE
       12000 FEET.
       "FAIR" INDICATES FEW OR NO CLOUDS BELOW 12,000 FEET WITH NO
       SIGNIFICANT WEATHER AND/OR OBSTRUCTIONS TO VISIBILITY.

  * THESE STATIONS DO NOT REPORT WEATHER SUCH AS RAIN...SNOW OR FOG.

NEZ001>004-019>022-054>056-251900-
NEBRASKA PANHANDLE

CITY           SKY/WX    TMP DP  RH WIND       PRES   REMARKS
SCOTTSBLUFF    MOSUNNY   71  40  32 W9G23     29.93F
6HR MIN TEMP:  50; 6HR MAX TEMP:  72;

ALLIANCE       SUNNY     71  41  33 SW16G23   29.92S
6HR MIN TEMP:  50; 6HR MAX TEMP:  71;

CHADRON        SUNNY     70  48  45 NW14G23   29.90S
6HR MIN TEMP:  44; 6HR MAX TEMP:  70;

SIDNEY         SUNNY     71  52  50 S12G20    29.97S
6HR MIN TEMP:  48; 6HR MAX TEMP:  71;

$$

NEZ057>060-069>072-079>082-251900-
SOUTHWEST NEBRASKA

CITY           SKY/WX    TMP DP  RH WIND       PRES   REMARKS
NORTH PLATTE   SUNNY     74  53  48 VRB3      29.90S
6HR MIN TEMP:  54; 6HR MAX TEMP:  74;

IMPERIAL       SUNNY     71  54  54 CALM      29.93F
6HR MIN TEMP:  52; 6HR MAX TEMP:  71;

LEXINGTON      SUNNY     73  59  61 SE5       29.89S
MCCOOK         SUNNY     76  58  53 N6        29.90R
6HR MIN TEMP:  60; 6HR MAX TEMP:  76;

$$

NEZ005>010-023>029-035>040-094-251900-
NORTH CENTRAL NEBRASKA

CITY           SKY/WX    TMP DP  RH WIND       PRES   REMARKS
VALENTINE      SUNNY     73  54  51 W12G18    29.85S
6HR MIN TEMP:  57; 6HR MAX TEMP:  73;

AINSWORTH      SUNNY     73  57  56 W14G20    29.87R
BROKEN BOW     MOSUNNY   74  60  61 SW10      29.88F
6HR MIN TEMP:  57; 6HR MAX TEMP:  74;

ORD            SUNNY     75  60  59 SW13      29.85F
6HR MIN TEMP:  59; 6HR MAX TEMP:  75;

$$

NEZ041-046>049-061>064-073>077-083>087-251900-
SOUTH CENTRAL NEBRASKA

CITY           SKY/WX    TMP DP  RH WIND       PRES   REMARKS
GRAND ISLAND   SUNNY     75  60  59 S12       29.86S
6HR MIN TEMP:  60; 6HR MAX TEMP:  75;

HASTINGS       SUNNY     73  61  65 S12G20    29.85S
6HR MIN TEMP:  59; 6HR MAX TEMP:  74; 6HR PCP: TRACE;

KEARNEY *      MOSUNNY   73  59  60 S10       29.88S
YORK           SUNNY     75  61  60 S15G22    29.85S
$$

NEZ011>018-030>034-042>045-251900-
NORTHEAST NEBRASKA

CITY           SKY/WX    TMP DP  RH WIND       PRES   REMARKS
NORFOLK        SUNNY     76  61  59 SW13      29.84R
6HR MIN TEMP:  60; 6HR MAX TEMP:  76; 6HR PCP:  0.01;

ALBION         SUNNY     74  61  61 W8        29.86S
BLAIR          MOSUNNY   75  62  64 S14       29.84S
FREMONT        SUNNY     75  61  61 S8G16     29.85R
TEKAMAH        CLOUDY    77  59  53 SW8       29.84S
6HR MIN TEMP:  62; 6HR MAX TEMP:  77; 6HR PCP:  0.01;

$$

NEZ050>053-065>068-078-088>093-251900-
SOUTHEAST NEBRASKA

CITY           SKY/WX    TMP DP  RH WIND       PRES   REMARKS
LINCOLN        SUNNY     78  62  57 S23G30    29.83F
6HR MIN TEMP:  63; 6HR MAX TEMP:  78; 6HR PCP:  0.01;

OMAHA EPPLEY   MOSUNNY   76  61  59 S10       29.82F
6HR MIN TEMP:  64; 6HR MAX TEMP:  76; 6HR PCP: TRACE;

FALLS CITY     CLOUDY    74  65  73 SE15      29.88R
6HR MIN TEMP:  63; 6HR MAX TEMP:  74; 6HR PCP:  0.12;

PLATTSMOUTH    SUNNY     75  64  69 S13       29.84F
$$

NEZ044-045-051>053-067-251900-
OMAHA AREA

CITY           SKY/WX    TMP DP  RH WIND       PRES   REMARKS
OMAHA EPPLEY   MOSUNNY   76  61  59 S10       29.82F
6HR MIN TEMP:  64; 6HR MAX TEMP:  76; 6HR PCP: TRACE;

BLAIR          MOSUNNY   75  62  64 S14       29.84S
FREMONT        SUNNY     75  61  61 S8G16     29.85R
OFFUTT AFB     SUNNY     74  63  67 S12       29.83S
PLATTSMOUTH    SUNNY     75  64  69 S13       29.84F
$$




USA.gov is the U.S. government's official web portal to all federal, state and local government web resources and services.